Simultaneous Nadir Overpasses (SNOs) Predictions

Prediction of SNOs between LANDSAT-8 and NOAA-19 Satellite Orbit:

Table of predicted SNOs for the next 14.0 days since TLE Epoch: 1/30/2021
Index Date (LANDSAT-8) Time (LANDSAT-8) Lat,Lon (LANDSAT-8) SZA (LANDSAT-8 ) Date (NOAA-19) Time (NOAA-19) Lat,Lon (NOAA-19) SZA (NOAA-19 ) Distance(km) Time Diff (sec)
1 01/30/2021 12:59:38 -80.22,-165.54 81.38 01/30/2021 12:59:02 -80.19,-165.60 81.42 3.09 36
2 01/30/2021 13:49:05 80.19, 1.85 98.57 01/30/2021 13:50:07 80.18, 1.85 98.58 1.38 62
3 02/01/2021 18:33:22 80.20, -69.15 97.96 02/01/2021 18:32:21 80.21, -69.14 97.95 1.57 61
4 02/01/2021 19:22:49 -80.20, 98.47 82.06 02/01/2021 19:23:15 -80.19, 98.45 82.06 0.70 26
5 02/04/2021 00:56:32 80.21,-164.88 97.30 02/04/2021 00:56:33 80.20,-164.86 97.30 1.11 1
6 02/06/2021 06:30:16 -80.21, -68.26 83.38 02/06/2021 06:29:42 -80.22, -68.41 83.39 2.86 34
7 02/06/2021 07:19:43 80.18, 99.08 96.57 02/06/2021 07:20:46 80.20, 99.08 96.61 2.74 63
8 02/08/2021 12:03:59 80.21, 28.32 95.93 02/08/2021 12:02:59 80.22, 28.35 95.92 0.91 60
9 02/08/2021 12:53:26 -80.22,-164.01 84.08 02/08/2021 12:53:54 -80.20,-164.03 84.09 2.19 28
10 02/10/2021 18:27:09 80.21, -67.46 95.20 02/10/2021 18:27:11 80.21, -67.42 95.20 1.04 2
11 02/13/2021 00:00:53 -80.22, 29.14 85.54 02/13/2021 00:00:21 -80.22, 29.09 85.54 1.19 32



Historial Predications of SNOs between LANDSAT-8 and NOAA-19
